| time (UTC) | temp C | wind direction | speed KPH | gust KPH | rain 1hr cm | rain 24hr cm | rain mn cm | humidity % | barometer mb |
| 20260507162334 | 15 | 89 | 1.6 | 3.2 | 0.00 | 0.10 | 0.10 | 10 | 1011.4 |
| 20260507161832 | 15 | 89 | 1.6 | 1.6 | 0.00 | 0.10 | 0.10 | 10 | 1011.6 |
| 20260507161328 | 14 | 77 | 1.6 | 1.6 | 0.00 | 0.10 | 0.10 | 10 | 1011.8 |
| 20260507160825 | 13 | 121 | 1.6 | 1.6 | 0.00 | 0.10 | 0.10 | 10 | 1011.7 |
| 20260507160321 | 13 | 15 | 6.4 | 9.7 | 0.00 | 0.10 | 0.10 | 10 | 1011.7 |
| 20260507155818 | 13 | 111 | 0.0 | 0.0 | 0.00 | 0.10 | 0.10 | 10 | 1011.8 |
| 20260507155313 | 13 | 88 | 0.0 | 1.6 | 0.00 | 0.10 | 0.10 | 10 | 1011.8 |
| 20260507154810 | 13 | 69 | 1.6 | 1.6 | 0.00 | 0.10 | 0.10 | 10 | 1012.0 |
| 20260507154307 | 13 | 69 | 0.0 | 0.0 | 0.00 | 0.10 | 0.10 | 10 | 1011.8 |
| 20260507153804 | 13 | 112 | 3.2 | 4.8 | 0.00 | 0.10 | 0.10 | 10 | 1012.1 |
| 20260507153300 | 13 | 150 | 8.0 | 9.7 | 0.00 | 0.10 | 0.10 | 10 | 1011.7 |
| 20260507152757 | 13 | 63 | 3.2 | 4.8 | 0.00 | 0.10 | 0.10 | 10 | 1012.1 |
| 20260507152253 | 13 | 86 | 3.2 | 3.2 | 0.00 | 0.10 | 0.10 | 10 | 1012.3 |
| 20260507151749 | 13 | 43 | 4.8 | 4.8 | 0.00 | 0.10 | 0.10 | 10 | 1012.0 |
| 20260507151246 | 13 | 7 | 4.8 | 4.8 | 0.00 | 0.10 | 0.10 | 10 | 1012.1 |
| 20260507150743 | 13 | 59 | 3.2 | 4.8 | 0.00 | 0.10 | 0.10 | 10 | 1012.3 |
| 20260507150240 | 12 | 48 | 3.2 | 4.8 | 0.00 | 0.10 | 0.10 | 10 | 1012.3 |
| 20260507145736 | 12 | 39 | 3.2 | 4.8 | 0.00 | 0.10 | 0.10 | 10 | 1012.5 |
| 20260507145232 | 12 | 100 | 0.0 | 0.0 | 0.00 | 0.10 | 0.10 | 10 | 1012.3 |
| 20260507144729 | 12 | 81 | 0.0 | 0.0 | 0.00 | 0.10 | 0.10 | 10 | 1012.4 |
| 20260507144227 | 12 | 89 | 0.0 | 1.6 | 0.00 | 0.10 | 0.10 | 10 | 1012.6 |
| 20260507143723 | 12 | 63 | 1.6 | 3.2 | 0.00 | 0.10 | 0.10 | 10 | 1012.5 |
| 20260507143220 | 12 | 51 | 3.2 | 3.2 | 0.00 | 0.10 | 0.10 | 10 | 1012.7 |
| 20260507142716 | 12 | 87 | 0.0 | 1.6 | 0.00 | 0.10 | 0.10 | 10 | 1012.6 |
| 20260507142213 | 12 | 55 | 3.2 | 3.2 | 0.00 | 0.10 | 0.10 | 10 | 1012.7 |
| 20260507141709 | 12 | 75 | 1.6 | 1.6 | 0.00 | 0.10 | 0.10 | 10 | 1012.8 |
| 20260507141207 | 12 | 77 | 3.2 | 4.8 | 0.00 | 0.10 | 0.10 | 10 | 1012.7 |
| 20260507140702 | 12 | 55 | 6.4 | 9.7 | 0.00 | 0.10 | 0.10 | 10 | 1012.9 |
| 20260507140200 | 12 | 22 | 4.8 | 8.0 | 0.00 | 0.10 | 0.10 | 10 | 1012.8 |
| 20260507135657 | 12 | 51 | 1.6 | 3.2 | 0.00 | 0.10 | 0.10 | 10 | 1012.7 |
| 20260507135154 | 12 | 56 | 1.6 | 1.6 | 0.00 | 0.10 | 0.10 | 10 | 1012.9 |
| 20260507134650 | 12 | 35 | 3.2 | 4.8 | 0.00 | 0.10 | 0.10 | 10 | 1013.1 |
| 20260507134147 | 12 | 31 | 12.9 | 16.1 | 0.00 | 0.10 | 0.10 | 10 | 1013.2 |
| 20260507133643 | 12 | 73 | 3.2 | 4.8 | 0.00 | 0.10 | 0.10 | 10 | 1013.1 |
| 20260507133140 | 12 | 24 | 4.8 | 8.0 | 0.00 | 0.10 | 0.10 | 10 | 1012.9 |
| 20260507132638 | 12 | 25 | 4.8 | 8.0 | 0.00 | 0.10 | 0.10 | 10 | 1012.9 |
| 20260507132133 | 12 | 27 | 6.4 | 8.0 | 0.00 | 0.10 | 0.10 | 10 | 1012.9 |
| 20260507131631 | 12 | 67 | 4.8 | 4.8 | 0.00 | 0.10 | 0.10 | 10 | 1013.0 |
| 20260507131128 | 12 | 76 | 4.8 | 4.8 | 0.00 | 0.10 | 0.10 | 10 | 1012.9 |
| 20260507130624 | 12 | 56 | 4.8 | 8.0 | 0.00 | 0.10 | 0.10 | 10 | 1012.9 |
| 20260507130123 | 12 | 48 | 8.0 | 9.7 | 0.00 | 0.10 | 0.10 | 10 | 1013.0 |
| 20260507125621 | 12 | 77 | 3.2 | 4.8 | 0.00 | 0.10 | 0.10 | 10 | 1012.7 |
| 20260507125118 | 12 | 21 | 4.8 | 8.0 | 0.00 | 0.10 | 0.10 | 10 | 1012.7 |
| 20260507124614 | 12 | 70 | 1.6 | 3.2 | 0.00 | 0.10 | 0.10 | 10 | 1012.7 |
| 20260507124112 | 12 | 42 | 1.6 | 3.2 | 0.00 | 0.10 | 0.10 | 10 | 1012.8 |
| 20260507123610 | 12 | 88 | 0.0 | 0.0 | 0.00 | 0.10 | 0.10 | 10 | 1012.9 |
| 20260507123107 | 12 | 86 | 0.0 | 0.0 | 0.00 | 0.10 | 0.10 | 10 | 1012.9 |
| 20260507122602 | 12 | 50 | 0.0 | 1.6 | 0.00 | 0.10 | 0.10 | 10 | 1013.0 |
| 20260507122058 | 12 | 60 | 3.2 | 3.2 | 0.00 | 0.10 | 0.10 | 10 | 1012.6 |
| 20260507121554 | 12 | 61 | 1.6 | 1.6 | 0.00 | 0.10 | 0.10 | 10 | 1012.7 |
| 20260507121050 | 12 | 339 | 3.2 | 3.2 | 0.00 | 0.10 | 0.10 | 10 | 1012.9 |
| 20260507120546 | 12 | 4 | 8.0 | 9.7 | 0.00 | 0.10 | 0.10 | 10 | 1012.6 |
| 20260507120043 | 12 | 67 | 1.6 | 3.2 | 0.00 | 0.10 | 0.10 | 10 | 1012.8 |
| 20260507115540 | 12 | 75 | 1.6 | 3.2 | 0.00 | 0.10 | 0.10 | 10 | 1012.7 |
| 20260507115035 | 12 | 351 | 4.8 | 4.8 | 0.00 | 0.10 | 0.10 | 10 | 1012.8 |
| 20260507114531 | 12 | 25 | 4.8 | 4.8 | 0.00 | 0.10 | 0.10 | 10 | 1012.4 |
| 20260507114029 | 12 | 47 | 4.8 | 4.8 | 0.00 | 0.10 | 0.10 | 10 | 1012.5 |
| 20260507113526 | 12 | 48 | 8.0 | 9.7 | 0.00 | 0.10 | 0.10 | 10 | 1012.5 |
| 20260507113024 | 12 | 7 | 3.2 | 4.8 | 0.00 | 0.10 | 0.10 | 10 | 1012.3 |
| 20260507112521 | 12 | 85 | 4.8 | 8.0 | 0.00 | 0.10 | 0.10 | 10 | 1012.4 |
| 20260507112018 | 12 | 65 | 3.2 | 4.8 | 0.00 | 0.10 | 0.10 | 10 | 1012.3 |
| 20260507111515 | 12 | 61 | 1.6 | 3.2 | 0.00 | 0.10 | 0.10 | 10 | 1012.5 |
| 20260507111011 | 12 | 64 | 3.2 | 3.2 | 0.00 | 0.10 | 0.10 | 10 | 1012.1 |
| 20260507110508 | 12 | 25 | 6.4 | 8.0 | 0.00 | 0.10 | 0.10 | 10 | 1012.4 |
| 20260507110005 | 12 | 87 | 3.2 | 3.2 | 0.00 | 0.10 | 0.10 | 10 | 1012.0 |
| 20260507105501 | 12 | 81 | 1.6 | 3.2 | 0.00 | 0.10 | 0.10 | 10 | 1012.3 |
| 20260507104957 | 12 | 78 | 3.2 | 3.2 | 0.00 | 0.10 | 0.10 | 10 | 1012.1 |
| 20260507104455 | 12 | 75 | 3.2 | 3.2 | 0.00 | 0.10 | 0.10 | 10 | 1012.1 |
| 20260507103950 | 12 | 84 | 0.0 | 1.6 | 0.00 | 0.10 | 0.10 | 10 | 1011.9 |
| 20260507103447 | 12 | 60 | 4.8 | 8.0 | 0.00 | 0.10 | 0.10 | 10 | 1012.1 |
| 20260507102943 | 12 | 88 | 0.0 | 0.0 | 0.00 | 0.10 | 0.10 | 10 | 1012.0 |
| 20260507102440 | 12 | 45 | 3.2 | 4.8 | 0.00 | 0.10 | 0.10 | 10 | 1012.0 |
| 20260507101937 | 12 | 45 | 3.2 | 3.2 | 0.00 | 0.10 | 0.10 | 10 | 1011.9 |
| 20260507101432 | 12 | 26 | 1.6 | 3.2 | 0.00 | 0.10 | 0.10 | 10 | 1011.8 |
| 20260507100928 | 12 | 36 | 4.8 | 4.8 | 0.00 | 0.10 | 0.10 | 10 | 1011.8 |
| 20260507100426 | 12 | 82 | 3.2 | 3.2 | 0.00 | 0.10 | 0.10 | 10 | 1011.8 |
| 20260507095924 | 12 | 20 | 3.2 | 4.8 | 0.00 | 0.10 | 0.10 | 10 | 1011.9 |
| 20260507095421 | 12 | 29 | 6.4 | 9.7 | 0.00 | 0.10 | 0.10 | 10 | 1011.8 |
| 20260507094918 | 12 | 81 | 0.0 | 3.2 | 0.00 | 0.10 | 0.10 | 10 | 1011.9 |
| 20260507094414 | 12 | 80 | 0.0 | 1.6 | 0.00 | 0.10 | 0.10 | 10 | 1011.8 |
| 20260507093911 | 12 | 84 | 0.0 | 1.6 | 0.00 | 0.10 | 0.10 | 10 | 1011.8 |
| 20260507093409 | 12 | 96 | 0.0 | 0.0 | 0.00 | 0.10 | 0.10 | 10 | 1011.6 |
| 20260507092908 | 12 | 73 | 1.6 | 1.6 | 0.00 | 0.10 | 0.10 | 10 | 1011.8 |
| 20260507092403 | 12 | 102 | 1.6 | 1.6 | 0.00 | 0.10 | 0.10 | 10 | 1011.6 |
| 20260507091900 | 12 | 54 | 3.2 | 3.2 | 0.00 | 0.10 | 0.10 | 10 | 1011.3 |
| 20260507091356 | 12 | 69 | 1.6 | 1.6 | 0.00 | 0.10 | 0.10 | 10 | 1011.3 |
| 20260507090852 | 12 | 346 | 6.4 | 9.7 | 0.00 | 0.10 | 0.10 | 10 | 1011.4 |
| 20260507090349 | 12 | 48 | 1.6 | 3.2 | 0.00 | 0.10 | 0.10 | 10 | 1011.4 |
| 20260507085846 | 12 | 26 | 9.7 | 12.9 | 0.00 | 0.10 | 0.10 | 10 | 1011.3 |
| 20260507085342 | 12 | 82 | 1.6 | 1.6 | 0.00 | 0.10 | 0.10 | 10 | 1011.2 |
| 20260507084840 | 12 | 73 | 0.0 | 1.6 | 0.00 | 0.10 | 0.10 | 10 | 1011.6 |
| 20260507084336 | 12 | 91 | 0.0 | 0.0 | 0.00 | 0.10 | 0.10 | 10 | 1011.2 |
| 20260507083834 | 12 | 76 | 1.6 | 1.6 | 0.00 | 0.10 | 0.10 | 10 | 1011.4 |
| 20260507083330 | 12 | 72 | 1.6 | 1.6 | 0.00 | 0.10 | 0.10 | 10 | 1011.4 |
| 20260507082826 | 13 | 87 | 0.0 | 1.6 | 0.00 | 0.10 | 0.10 | 10 | 1011.4 |
| 20260507082322 | 12 | 15 | 4.8 | 8.0 | 0.00 | 0.10 | 0.10 | 10 | 1011.6 |
| 20260507081820 | 12 | 23 | 4.8 | 8.0 | 0.00 | 0.10 | 0.10 | 10 | 1011.5 |
| 20260507081315 | 12 | 68 | 3.2 | 3.2 | 0.00 | 0.10 | 0.10 | 10 | 1011.2 |
| 20260507080812 | 12 | 101 | 0.0 | 0.0 | 0.00 | 0.10 | 0.10 | 10 | 1011.1 |
| 20260507080308 | 12 | 11 | 4.8 | 8.0 | 0.00 | 0.10 | 0.10 | 10 | 1010.9 |
| 20260507075803 | 12 | 301 | 4.8 | 8.0 | 0.00 | 0.10 | 0.10 | 10 | 1010.6 |
| 20260507075300 | 12 | 59 | 4.8 | 9.7 | 0.00 | 0.10 | 0.10 | 10 | 1010.8 |
| 20260507074756 | 12 | 66 | 1.6 | 3.2 | 0.00 | 0.10 | 0.10 | 10 | 1010.7 |
| 20260507074255 | 12 | 28 | 4.8 | 4.8 | 0.00 | 0.10 | 0.10 | 10 | 1010.8 |
| 20260507073751 | 12 | 93 | 0.0 | 1.6 | 0.00 | 0.10 | 0.10 | 10 | 1010.8 |
| 20260507073248 | 12 | 29 | 3.2 | 4.8 | 0.00 | 0.10 | 0.10 | 10 | 1010.8 |
| 20260507072746 | 12 | 83 | 1.6 | 1.6 | 0.00 | 0.10 | 0.10 | 10 | 1010.6 |
| 20260507072243 | 12 | 85 | 1.6 | 3.2 | 0.00 | 0.10 | 0.10 | 10 | 1010.8 |
| 20260507071740 | 12 | 57 | 3.2 | 3.2 | 0.00 | 0.10 | 0.10 | 10 | 1010.7 |
| 20260507071236 | 12 | 7 | 11.3 | 12.9 | 0.00 | 0.10 | 0.10 | 10 | 1010.7 |
| 20260507070733 | 12 | 65 | 1.6 | 3.2 | 0.00 | 0.10 | 0.10 | 10 | 1010.9 |
| 20260507070230 | 12 | 19 | 8.0 | 11.3 | 0.00 | 0.10 | 0.10 | 10 | 1010.8 |
| 20260507065727 | 12 | 21 | 3.2 | 4.8 | 0.00 | 0.10 | 0.10 | 10 | 1010.7 |
| 20260507065224 | 12 | 39 | 4.8 | 4.8 | 0.00 | 0.10 | 0.10 | 10 | 1010.7 |
| 20260507064721 | 12 | 31 | 3.2 | 4.8 | 0.00 | 0.10 | 0.10 | 10 | 1010.8 |
| 20260507064220 | 12 | 67 | 3.2 | 3.2 | 0.00 | 0.10 | 0.10 | 10 | 1010.7 |
| 20260507063717 | 12 | 38 | 8.0 | 9.7 | 0.00 | 0.10 | 0.10 | 10 | 1010.8 |
| 20260507063214 | 12 | 61 | 4.8 | 4.8 | 0.00 | 0.10 | 0.10 | 10 | 1010.7 |
| 20260507062710 | 12 | 59 | 6.4 | 9.7 | 0.00 | 0.10 | 0.10 | 10 | 1011.0 |
| 20260507062208 | 12 | 51 | 1.6 | 3.2 | 0.00 | 0.10 | 0.10 | 10 | 1011.1 |
| 20260507061706 | 12 | 86 | 0.0 | 0.0 | 0.00 | 0.10 | 0.10 | 10 | 1011.0 |
| 20260507061204 | 12 | 21 | 8.0 | 11.3 | 0.00 | 0.10 | 0.10 | 10 | 1010.6 |
| 20260507060702 | 12 | 25 | 3.2 | 3.2 | 0.00 | 0.10 | 0.10 | 10 | 1010.6 |
| 20260507060157 | 12 | 41 | 4.8 | 4.8 | 0.00 | 0.10 | 0.10 | 10 | 1010.6 |
| 20260507055654 | 12 | 74 | 0.0 | 1.6 | 0.00 | 0.10 | 0.10 | 10 | 1010.7 |
| 20260507055149 | 12 | 345 | 9.7 | 12.9 | 0.00 | 0.10 | 0.10 | 10 | 1010.9 |
| 20260507054645 | 12 | 70 | 1.6 | 3.2 | 0.18 | 0.10 | 0.10 | 10 | 1010.9 |
| 20260507054142 | 12 | 60 | 3.2 | 3.2 | 0.18 | 0.10 | 0.10 | 10 | 1011.0 |
| 20260507053640 | 13 | 30 | 0.0 | 1.6 | 0.00 | 0.08 | 0.08 | 10 | 1010.8 |
| 20260507053138 | 13 | 57 | 8.0 | 9.7 | 0.00 | 0.08 | 0.08 | 10 | 1010.7 |
| 20260507052637 | 13 | 81 | 3.2 | 3.2 | 0.13 | 0.08 | 0.08 | 10 | 1010.9 |
| 20260507052132 | 13 | 57 | 1.6 | 3.2 | 0.13 | 0.08 | 0.08 | 10 | 1010.8 |
| 20260507051630 | 13 | 7 | 4.8 | 4.8 | 0.00 | 0.05 | 0.05 | 10 | 1011.0 |
| 20260507051127 | 13 | 57 | 1.6 | 1.6 | 0.00 | 0.05 | 0.05 | 10 | 1010.7 |
| 20260507050624 | 13 | 63 | 0.0 | 1.6 | 0.00 | 0.05 | 0.05 | 10 | 1010.3 |
| 20260507050120 | 13 | 88 | 0.0 | 0.0 | 0.00 | 0.05 | 0.05 | 10 | 1010.2 |
| 20260507045617 | 13 | 76 | 0.0 | 0.0 | 0.00 | 0.05 | 0.05 | 10 | 1010.7 |
| 20260507045114 | 13 | 40 | 3.2 | 3.2 | 0.00 | 0.05 | 0.05 | 10 | 1011.2 |
| 20260507044611 | 13 | 73 | 3.2 | 4.8 | 0.00 | 0.05 | 0.05 | 10 | 1011.1 |
| 20260507044108 | 13 | 42 | 3.2 | 3.2 | 0.00 | 0.05 | 0.05 | 10 | 1010.7 |
| 20260507043603 | 13 | 70 | 0.0 | 0.0 | 0.00 | 0.05 | 0.05 | 10 | 1010.5 |
| 20260507043101 | 13 | 91 | 1.6 | 1.6 | 0.00 | 0.05 | 0.05 | 10 | 1010.9 |
| 20260507042556 | 13 | 107 | 0.0 | 0.0 | 0.00 | 0.05 | 0.05 | 10 | 1010.8 |
| 20260507042052 | 14 | 58 | 1.6 | 3.2 | 0.18 | 0.05 | 0.05 | 10 | 1010.9 |
| 20260507041549 | 15 | 37 | 3.2 | 4.8 | 0.18 | 0.05 | 0.05 | 10 | 1011.2 |
| 20260507041046 | 15 | 57 | 9.7 | 11.3 | 0.13 | 0.03 | 0.03 | 10 | 1011.2 |
| 20260507040543 | 15 | 10 | 8.0 | 11.3 | 0.13 | 0.03 | 0.03 | 10 | 1010.8 |
| 20260507040039 | 15 | 34 | 3.2 | 4.8 | 0.00 | 0.00 | 0.00 | 10 | 1010.9 |
| 20260507035535 | 15 | 89 | 1.6 | 1.6 | 0.00 | 0.74 | 0.74 | 10 | 1010.8 |
| 20260507035032 | 15 | 39 | 4.8 | 4.8 | 0.00 | 0.74 | 0.74 | 10 | 1010.4 |
| 20260507034528 | 15 | 65 | 1.6 | 1.6 | 0.00 | 0.74 | 0.74 | 10 | 1010.2 |
| 20260507034026 | 15 | 43 | 0.0 | 1.6 | 0.00 | 0.74 | 0.74 | 10 | 1010.4 |
| 20260507033524 | 15 | 65 | 1.6 | 3.2 | 0.00 | 0.74 | 0.74 | 10 | 1010.4 |
| 20260507033021 | 16 | 54 | 4.8 | 4.8 | 0.00 | 0.74 | 0.74 | 10 | 1010.5 |
| 20260507032518 | 16 | 37 | 1.6 | 1.6 | 0.00 | 0.74 | 0.74 | 10 | 1010.3 |
| 20260507032014 | 16 | 114 | 1.6 | 1.6 | 0.00 | 0.74 | 0.74 | 10 | 1010.4 |
| 20260507031510 | 16 | 71 | 4.8 | 8.0 | 0.00 | 0.74 | 0.74 | 10 | 1010.6 |
| 20260507031008 | 16 | 346 | 4.8 | 8.0 | 0.00 | 0.74 | 0.74 | 10 | 1010.7 |
| 20260507030505 | 16 | 9 | 11.3 | 14.5 | 0.00 | 0.74 | 0.74 | 10 | 1010.4 |
| 20260507030002 | 16 | 359 | 11.3 | 12.9 | 0.00 | 0.74 | 0.74 | 10 | 1010.1 |
| 20260507025459 | 16 | 7 | 4.8 | 8.0 | 0.00 | 0.74 | 0.74 | 10 | 1009.9 |
| 20260507024957 | 16 | 62 | 6.4 | 9.7 | 0.00 | 0.74 | 0.74 | 10 | 1009.7 |
| 20260507024454 | 17 | 85 | 1.6 | 1.6 | 0.00 | 0.74 | 0.74 | 10 | 1009.3 |
| 20260507023950 | 17 | 4 | 8.0 | 9.7 | 0.00 | 0.74 | 0.74 | 10 | 1009.9 |
| 20260507023447 | 17 | 81 | 1.6 | 1.6 | 0.00 | 0.74 | 0.74 | 10 | 1010.2 |
| 20260507022944 | 17 | 64 | 6.4 | 9.7 | 0.00 | 0.74 | 0.74 | 10 | 1009.7 |
| 20260507022441 | 17 | 94 | 1.6 | 3.2 | 0.00 | 0.74 | 0.74 | 10 | 1009.6 |
| 20260507021936 | 17 | 63 | 3.2 | 3.2 | 0.00 | 0.74 | 0.74 | 10 | 1009.7 |
| 20260507021431 | 17 | 27 | 6.4 | 8.0 | 0.00 | 0.74 | 0.74 | 10 | 1009.7 |
| 20260507020930 | 17 | 357 | 8.0 | 9.7 | 0.00 | 0.74 | 0.74 | 10 | 1009.7 |
| 20260507020426 | 17 | 61 | 4.8 | 4.8 | 0.00 | 0.74 | 0.74 | 10 | 1009.8 |
| 20260507015923 | 17 | 103 | 1.6 | 1.6 | 0.00 | 0.74 | 0.74 | 10 | 1009.5 |
| 20260507015421 | 17 | 25 | 1.6 | 3.2 | 0.00 | 0.74 | 0.74 | 10 | 1009.6 |
| 20260507014918 | 18 | 62 | 1.6 | 3.2 | 0.00 | 0.74 | 0.74 | 10 | 1009.4 |
| 20260507014415 | 18 | 58 | 1.6 | 4.8 | 0.00 | 0.74 | 0.74 | 10 | 1009.1 |
| 20260507013911 | 18 | 85 | 1.6 | 1.6 | 0.00 | 0.74 | 0.74 | 10 | 1009.1 |
| 20260507013408 | 17 | 15 | 8.0 | 9.7 | 0.00 | 0.74 | 0.74 | 10 | 1009.2 |
| 20260507012906 | 17 | 88 | 0.0 | 1.6 | 0.00 | 0.74 | 0.74 | 10 | 1009.7 |
| 20260507012402 | 17 | 80 | 0.0 | 0.0 | 0.00 | 0.74 | 0.74 | 10 | 1009.5 |
| 20260507011859 | 17 | 85 | 0.0 | 0.0 | 0.00 | 0.74 | 0.74 | 10 | 1009.7 |
| 20260507011356 | 17 | 101 | 0.0 | 0.0 | 0.00 | 0.74 | 0.74 | 10 | 1009.6 |
| 20260507010855 | 17 | 60 | 1.6 | 3.2 | 0.00 | 0.74 | 0.74 | 10 | 1009.8 |
| 20260507010351 | 17 | 217 | 3.2 | 8.0 | 0.00 | 0.74 | 0.74 | 10 | 1009.4 |
| 20260507005849 | 18 | 7 | 1.6 | 3.2 | 0.00 | 0.74 | 0.74 | 10 | 1009.6 |
| 20260507005345 | 18 | 58 | 1.6 | 3.2 | 0.00 | 0.74 | 0.74 | 10 | 1009.6 |
| 20260507004842 | 18 | 101 | 0.0 | 0.0 | 0.00 | 0.74 | 0.74 | 10 | 1009.2 |
| 20260507004339 | 18 | 111 | 0.0 | 0.0 | 0.00 | 0.74 | 0.74 | 10 | 1009.5 |
| 20260507003836 | 18 | 110 | 0.0 | 0.0 | 0.00 | 0.74 | 0.74 | 10 | 1009.4 |
| 20260507003332 | 18 | 110 | 0.0 | 0.0 | 0.00 | 0.74 | 0.74 | 10 | 1009.3 |
| 20260507002826 | 18 | 111 | 0.0 | 0.0 | 0.00 | 0.74 | 0.74 | 10 | 1009.2 |
| 20260507002323 | 18 | 110 | 0.0 | 0.0 | 0.00 | 0.74 | 0.74 | 10 | 1009.0 |
| 20260507001821 | 18 | 110 | 0.0 | 0.0 | 0.00 | 0.74 | 0.74 | 10 | 1009.1 |
| 20260507001318 | 18 | 110 | 0.0 | 0.0 | 0.00 | 0.74 | 0.74 | 10 | 1008.8 |
| 20260507000814 | 18 | 112 | 0.0 | 0.0 | 0.18 | 0.74 | 0.74 | 10 | 1009.0 |
| 20260507000309 | 19 | 112 | 0.0 | 0.0 | 0.30 | 0.74 | 0.74 | 10 | 1008.7 |
| 20260506235806 | 19 | 112 | 0.0 | 0.0 | 0.13 | 0.71 | 0.71 | 10 | 1008.9 |
| 20260506235306 | 20 | 112 | 0.0 | 0.0 | 0.00 | 0.69 | 0.69 | 10 | 1008.9 |
| 20260506234753 | 20 | 116 | 0.0 | 0.0 | 0.00 | 0.69 | 0.69 | 10 | 1008.7 |
| 20260506234250 | 20 | 117 | 0.0 | 0.0 | 0.00 | 0.69 | 0.69 | 10 | 1008.9 |
| 20260506233743 | 20 | 115 | 0.0 | 0.0 | 0.00 | 0.69 | 0.69 | 10 | 1008.7 |
| 20260506233239 | 20 | 126 | 0.0 | 0.0 | 0.00 | 0.69 | 0.69 | 10 | 1008.5 |
| 20260506232735 | 20 | 141 | 0.0 | 0.0 | 0.00 | 0.69 | 0.69 | 10 | 1008.2 |
| 20260506232230 | 20 | 135 | 0.0 | 0.0 | 0.00 | 0.69 | 0.69 | 10 | 1008.3 |
| 20260506231728 | 20 | 121 | 0.0 | 0.0 | 0.00 | 0.69 | 0.69 | 10 | 1008.4 |
| 20260506231226 | 20 | 134 | 0.0 | 0.0 | 0.00 | 0.69 | 0.69 | 10 | 1008.2 |
| 20260506230723 | 20 | 153 | 0.0 | 0.0 | 0.00 | 0.69 | 0.69 | 10 | 1008.1 |
| 20260506230219 | 20 | 124 | 0.0 | 0.0 | 0.00 | 0.69 | 0.69 | 10 | 1008.0 |
| 20260506225716 | 20 | 125 | 0.0 | 0.0 | 0.00 | 0.69 | 0.69 | 10 | 1008.3 |
| 20260506225213 | 20 | 121 | 0.0 | 0.0 | 0.00 | 0.69 | 0.69 | 10 | 1008.0 |
| 20260506224709 | 20 | 154 | 1.6 | 1.6 | 0.00 | 0.69 | 0.69 | 10 | 1007.9 |
| 20260506224207 | 20 | 151 | 1.6 | 1.6 | 0.00 | 0.69 | 0.69 | 10 | 1008.2 |
| 20260506223703 | 20 | 172 | 1.6 | 3.2 | 0.00 | 0.69 | 0.69 | 10 | 1008.1 |
| 20260506223158 | 20 | 146 | 1.6 | 3.2 | 0.00 | 0.69 | 0.69 | 10 | 1008.0 |
| 20260506222656 | 20 | 112 | 1.6 | 1.6 | 0.00 | 0.69 | 0.69 | 10 | 1008.1 |
| 20260506222151 | 20 | 169 | 3.2 | 3.2 | 0.00 | 0.69 | 0.69 | 10 | 1008.1 |
| 20260506221650 | 20 | 152 | 3.2 | 4.8 | 0.00 | 0.69 | 0.69 | 10 | 1008.2 |
| 20260506221147 | 20 | 185 | 3.2 | 3.2 | 0.00 | 0.69 | 0.69 | 10 | 1008.0 |
| 20260506220644 | 21 | 123 | 1.6 | 1.6 | 0.00 | 0.69 | 0.69 | 10 | 1007.9 |
| 20260506220139 | 21 | 214 | 1.6 | 3.2 | 0.00 | 0.69 | 0.69 | 10 | 1007.9 |
| 20260506215636 | 21 | 162 | 4.8 | 4.8 | 0.00 | 0.69 | 0.69 | 10 | 1007.6 |
| 20260506215131 | 21 | 128 | 1.6 | 1.6 | 0.00 | 0.69 | 0.69 | 10 | 1007.7 |
| 20260506214628 | 21 | 222 | 3.2 | 3.2 | 0.00 | 0.69 | 0.69 | 10 | 1007.8 |
| 20260506214126 | 21 | 305 | 0.0 | 0.0 | 0.00 | 0.69 | 0.69 | 10 | 1007.9 |
| 20260506213624 | 21 | 156 | 3.2 | 3.2 | 0.00 | 0.69 | 0.69 | 10 | 1007.9 |
| 20260506213121 | 20 | 170 | 0.0 | 1.6 | 0.00 | 0.69 | 0.69 | 10 | 1008.0 |
| 20260506212618 | 21 | 215 | 3.2 | 3.2 | 0.00 | 0.69 | 0.69 | 10 | 1008.1 |
| 20260506212113 | 21 | 198 | 4.8 | 4.8 | 0.00 | 0.69 | 0.69 | 10 | 1008.0 |
| 20260506211608 | 21 | 179 | 1.6 | 3.2 | 0.00 | 0.69 | 0.69 | 10 | 1007.8 |
| 20260506211106 | 20 | 174 | 4.8 | 8.0 | 0.00 | 0.69 | 0.69 | 10 | 1007.8 |
| 20260506210603 | 21 | 202 | 4.8 | 4.8 | 0.00 | 0.69 | 0.69 | 10 | 1008.0 |
| 20260506210059 | 21 | 221 | 6.4 | 8.0 | 0.00 | 0.69 | 0.69 | 10 | 1007.7 |
| 20260506205556 | 21 | 204 | 0.0 | 1.6 | 0.00 | 0.69 | 0.69 | 10 | 1007.7 |
| 20260506205051 | 21 | 177 | 4.8 | 4.8 | 0.00 | 0.69 | 0.69 | 10 | 1007.4 |
| 20260506204549 | 21 | 161 | 6.4 | 8.0 | 0.00 | 0.69 | 0.69 | 10 | 1007.3 |
| 20260506204046 | 21 | 195 | 4.8 | 4.8 | 0.00 | 0.69 | 0.69 | 10 | 1007.1 |
| 20260506203544 | 20 | 178 | 3.2 | 3.2 | 0.00 | 0.69 | 0.69 | 10 | 1007.3 |
| 20260506203040 | 20 | 173 | 4.8 | 4.8 | 0.00 | 0.69 | 0.69 | 10 | 1007.7 |
| 20260506202538 | 20 | 214 | 4.8 | 4.8 | 0.00 | 0.69 | 0.69 | 10 | 1007.6 |
| 20260506202034 | 20 | 153 | 4.8 | 4.8 | 0.00 | 0.69 | 0.69 | 10 | 1007.4 |
| 20260506201532 | 20 | 147 | 3.2 | 3.2 | 0.00 | 0.69 | 0.69 | 10 | 1007.8 |
| 20260506201028 | 20 | 156 | 1.6 | 1.6 | 0.00 | 0.69 | 0.69 | 10 | 1007.7 |
| 20260506200524 | 20 | 87 | 4.8 | 4.8 | 0.00 | 0.69 | 0.69 | 10 | 1007.6 |
| 20260506200021 | 20 | 197 | 8.0 | 9.7 | 0.00 | 0.69 | 0.69 | 10 | 1007.7 |
| 20260506195518 | 20 | 157 | 4.8 | 8.0 | 0.00 | 0.69 | 0.69 | 10 | 1007.7 |
| 20260506195014 | 20 | 202 | 4.8 | 4.8 | 0.00 | 0.69 | 0.69 | 10 | 1007.7 |
| 20260506194512 | 20 | 160 | 1.6 | 3.2 | 0.00 | 0.69 | 0.69 | 10 | 1007.7 |
| 20260506194009 | 20 | 227 | 6.4 | 8.0 | 0.00 | 0.69 | 0.69 | 10 | 1007.8 |
| 20260506193506 | 20 | 125 | 4.8 | 8.0 | 0.00 | 0.69 | 0.69 | 10 | 1007.8 |
| 20260506193003 | 20 | 200 | 3.2 | 3.2 | 0.00 | 0.69 | 0.69 | 10 | 1007.9 |
| 20260506192500 | 20 | 181 | 3.2 | 4.8 | 0.00 | 0.69 | 0.69 | 10 | 1007.7 |
| 20260506191955 | 20 | 227 | 1.6 | 3.2 | 0.00 | 0.69 | 0.69 | 10 | 1007.9 |
| 20260506191453 | 20 | 234 | 11.3 | 14.5 | 0.00 | 0.69 | 0.69 | 10 | 1008.0 |
| 20260506190949 | 19 | 164 | 6.4 | 8.0 | 0.00 | 0.69 | 0.69 | 10 | 1007.9 |
| 20260506190446 | 19 | 195 | 9.7 | 12.9 | 0.00 | 0.69 | 0.69 | 10 | 1007.8 |
| 20260506185942 | 19 | 179 | 3.2 | 4.8 | 0.00 | 0.69 | 0.69 | 10 | 1008.0 |
| 20260506185440 | 19 | 223 | 3.2 | 9.7 | 0.00 | 0.69 | 0.69 | 10 | 1008.2 |
| 20260506184937 | 19 | 196 | 6.4 | 8.0 | 0.00 | 0.69 | 0.69 | 10 | 1008.1 |
| 20260506184433 | 18 | 119 | 3.2 | 3.2 | 0.00 | 0.69 | 0.69 | 10 | 1008.1 |
| 20260506183931 | 18 | 210 | 1.6 | 3.2 | 0.00 | 0.69 | 0.69 | 10 | 1008.5 |
| 20260506183426 | 18 | 215 | 8.0 | 9.7 | 0.00 | 0.69 | 0.69 | 10 | 1008.5 |
| 20260506182924 | 18 | 203 | 4.8 | 8.0 | 0.00 | 0.69 | 0.69 | 10 | 1008.4 |
| 20260506182421 | 18 | 111 | 4.8 | 8.0 | 0.00 | 0.69 | 0.69 | 10 | 1008.4 |
| 20260506181918 | 18 | 187 | 8.0 | 14.5 | 0.00 | 0.69 | 0.69 | 10 | 1008.4 |
| 20260506181416 | 18 | 164 | 4.8 | 4.8 | 0.00 | 0.69 | 0.69 | 10 | 1008.6 |
| 20260506180912 | 18 | 183 | 6.4 | 8.0 | 0.00 | 0.69 | 0.69 | 10 | 1008.8 |
| 20260506180409 | 18 | 165 | 4.8 | 8.0 | 0.00 | 0.69 | 0.69 | 10 | 1008.5 |
| 20260506175906 | 18 | 200 | 8.0 | 14.5 | 0.00 | 0.69 | 0.69 | 10 | 1008.5 |
| 20260506175402 | 18 | 204 | 3.2 | 4.8 | 0.00 | 0.69 | 0.69 | 10 | 1008.7 |
| 20260506174859 | 18 | 250 | 3.2 | 8.0 | 0.00 | 0.69 | 0.69 | 10 | 1008.6 |
| 20260506174357 | 18 | 219 | 4.8 | 8.0 | 0.00 | 0.69 | 0.69 | 10 | 1008.6 |
| 20260506173854 | 18 | 208 | 3.2 | 4.8 | 0.00 | 0.69 | 0.69 | 10 | 1008.8 |
| 20260506173350 | 18 | 154 | 6.4 | 9.7 | 0.00 | 0.69 | 0.69 | 10 | 1008.9 |
| 20260506172848 | 18 | 216 | 6.4 | 8.0 | 0.00 | 0.69 | 0.69 | 10 | 1008.8 |
| 20260506172344 | 18 | 191 | 4.8 | 4.8 | 0.00 | 0.69 | 0.69 | 10 | 1008.9 |
| 20260506171842 | 17 | 197 | 4.8 | 4.8 | 0.00 | 0.69 | 0.69 | 10 | 1008.8 |
| 20260506171339 | 17 | 226 | 6.4 | 8.0 | 0.00 | 0.69 | 0.69 | 10 | 1009.0 |
| 20260506170836 | 17 | 212 | 6.4 | 8.0 | 0.00 | 0.69 | 0.69 | 10 | 1008.8 |
| 20260506170332 | 17 | 200 | 4.8 | 8.0 | 0.00 | 0.69 | 0.69 | 10 | 1009.0 |
| 20260506165832 | 17 | 217 | 4.8 | 8.0 | 0.00 | 0.69 | 0.69 | 10 | 1009.1 |
| 20260506165329 | 17 | 215 | 4.8 | 8.0 | 0.00 | 0.69 | 0.69 | 10 | 1008.9 |
| 20260506164825 | 17 | 187 | 3.2 | 3.2 | 0.00 | 0.69 | 0.69 | 10 | 1009.0 |
| 20260506164322 | 17 | 210 | 8.0 | 12.9 | 0.00 | 0.69 | 0.69 | 10 | 1008.8 |
| 20260506163819 | 17 | 221 | 4.8 | 4.8 | 0.00 | 0.69 | 0.69 | 10 | 1008.9 |
| 20260506163314 | 17 | 189 | 3.2 | 3.2 | 0.00 | 0.69 | 0.69 | 10 | 1009.0 |
| 20260506162809 | 17 | 202 | 11.3 | 11.3 | 0.00 | 0.69 | 0.69 | 10 | 1009.1 |